Volver al catálogo

ARIANE 2 DEB

LostGTO
NORAD 33569·DEBRIS·🇫🇷 France

Lanzado Jan 27, 1989 desde Guiana Space Centre

Loading…

TLE

ObsoletoSource: Space-Track

Época: Jun 26, 2026, 08:27 UTC

1 33569U 89006BM  26177.35208978  .00001231  00000-0  32281-1 0  9998
2 33569   8.7053 209.2038 7079592 158.3817 302.8664  2.29746335 31966

Sigue ARIANE 2 DEB en tiempo real con AllMySat

Download on the App Store